KD7MPG-3 Weather Reports


Display with metric or nautical units.
time (UTC)temp
F
wind
direction
speed
MPH
gust
MPH
rain 1hr
in
rain 24hr
in
rain mn
in
humidity
%
barometer
mb
20260506231026 72 261 5.0 9.0 0.00 0.00 0.00 67 1028.3
20260506230525 73 251 4.0 9.0 0.00 0.00 0.00 67 1028.3
20260506230025 73 282 3.0 9.0 0.00 0.00 0.00 67 1028.3
20260506225525 73 283 3.0 9.0 0.00 0.00 0.00 66 1028.4
20260506225025 73 321 3.0 9.0 0.00 0.00 0.00 65 1028.5
20260506224525 73 265 3.0 8.0 0.00 0.00 0.00 65 1028.5
20260506224019 73 273 3.0 9.0 0.00 0.00 0.00 64 1028.6
20260506223519 74 267 2.0 9.0 0.00 0.00 0.00 62 1028.6
20260506223019 73 175 2.0 4.0 0.00 0.00 0.00 62 1028.6
20260506222519 73 251 2.0 7.0 0.00 0.00 0.00 62 1028.7
20260506222019 73 36 2.0 7.0 0.00 0.00 0.00 65 1028.6
20260506221520 73 299 2.0 6.0 0.00 0.00 0.00 66 1028.7
20260506221016 72 216 3.0 7.0 0.00 0.00 0.00 65 1028.8
20260506220515 72 276 2.0 7.0 0.00 0.00 0.00 66 1028.8
20260506220016 72 221 2.0 6.0 0.00 0.00 0.00 67 1028.8
20260506215515 71 157 2.0 5.0 0.00 0.00 0.00 65 1028.8
20260506215013 71 165 2.0 7.0 0.00 0.00 0.00 67 1028.8
20260506214514 71 261 3.0 7.0 0.00 0.00 0.00 67 1028.9
20260506214011 71 219 3.0 7.0 0.00 0.00 0.00 69 1028.8
20260506213509 71 259 2.0 6.0 0.00 0.00 0.00 69 1028.8
20260506213011 71 237 1.0 5.0 0.00 0.00 0.00 71 1028.7
20260506212509 71 319 2.0 6.0 0.00 0.00 0.00 69 1028.7
20260506212007 71 344 2.0 7.0 0.00 0.00 0.00 69 1028.9
20260506211506 70 210 2.0 7.0 0.00 0.00 0.00 72 1028.8
20260506211005 69 176 2.0 7.0 0.00 0.00 0.00 74 1028.8
20260506210505 68 202 1.0 6.0 0.00 0.00 0.00 76 1028.9
20260506210006 68 323 1.0 5.0 0.00 0.00 0.00 73 1028.9
20260506205504 68 315 2.0 5.0 0.00 0.00 0.00 74 1029.1
20260506205001 68 232 1.0 5.0 0.00 0.00 0.00 74 1029.1
20260506204502 67 83 1.0 4.0 0.00 0.00 0.00 76 1029.1
20260506203957 67 245 2.0 6.0 0.00 0.00 0.00 75 1029.2
20260506203457 67 234 3.0 7.0 0.00 0.00 0.00 74 1029.2
20260506202955 68 244 3.0 7.0 0.00 0.00 0.00 73 1029.3
20260506202456 69 279 2.0 6.0 0.00 0.00 0.00 73 1029.3
20260506201955 69 215 1.0 6.0 0.00 0.00 0.00 71 1029.2
20260506201456 70 152 2.0 6.0 0.00 0.00 0.00 73 1029.2
20260506200950 69 175 3.0 8.0 0.00 0.00 0.00 74 1029.2
20260506200449 69 175 3.0 8.0 0.00 0.00 0.00 73 1029.4
20260506195949 69 190 2.0 8.0 0.00 0.00 0.00 73 1029.4
20260506195449 70 227 3.0 8.0 0.00 0.00 0.00 72 1029.3
20260506194949 70 118 3.0 8.0 0.00 0.00 0.00 73 1029.4
20260506194449 70 211 3.0 12.0 0.00 0.00 0.00 74 1029.5
20260506193945 69 186 3.0 12.0 0.00 0.00 0.00 75 1029.4
20260506193445 68 148 3.0 10.0 0.00 0.00 0.00 78 1029.4
20260506192945 67 117 3.0 10.0 0.00 0.00 0.00 76 1029.4
20260506192445 67 171 3.0 9.0 0.00 0.00 0.00 77 1029.4
20260506191942 67 161 3.0 8.0 0.00 0.00 0.00 78 1029.3
20260506191444 66 156 3.0 7.0 0.00 0.00 0.00 82 1029.4
20260506190938 65 145 3.0 7.0 0.00 0.00 0.00 82 1029.6
20260506190437 64 156 2.0 6.0 0.00 0.00 0.00 82 1029.7
20260506185936 63 218 3.0 7.0 0.00 0.00 0.00 81 1029.7
20260506185437 63 235 2.0 7.0 0.00 0.00 0.00 81 1029.7
20260506184937 63 150 2.0 5.0 0.00 0.00 0.00 82 1029.7
20260506184438 62 197 2.0 5.0 0.00 0.00 0.00 82 1029.7
20260506183932 62 207 2.0 6.0 0.00 0.00 0.00 83 1029.7
20260506183431 62 180 2.0 7.0 0.00 0.00 0.00 84 1029.7
20260506182930 62 240 2.0 7.0 0.00 0.00 0.00 84 1029.8
20260506182431 61 273 1.0 6.0 0.00 0.00 0.00 84 1029.7
20260506181931 61 225 1.0 3.0 0.00 0.00 0.00 83 1029.8
20260506181431 61 202 1.0 5.0 0.00 0.00 0.00 83 1029.8
20260506180926 61 178 2.0 6.0 0.00 0.00 0.00 83 1029.6
20260506180425 60 106 1.0 6.0 0.00 0.00 0.00 85 1029.7
20260506175925 60 82 1.0 3.0 0.00 0.00 0.00 85 1029.6
20260506175425 59 168 1.0 5.0 0.00 0.00 0.00 86 1029.7
20260506174925 58 154 1.0 5.0 0.00 0.00 0.00 87 1029.7
20260506174426 58 215 1.0 3.0 0.00 0.00 0.00 86 1029.7
20260506173919 58 253 1.0 3.0 0.00 0.00 0.00 87 1029.7
20260506173418 58 302 1.0 3.0 0.00 0.00 0.00 88 1029.8
20260506172915 57 333 1.0 4.0 0.00 0.00 0.00 87 1029.8
20260506172413 57 258 2.0 5.0 0.00 0.00 0.00 87 1029.9
20260506171914 57 270 2.0 7.0 0.00 0.00 0.00 87 1029.9
20260506171408 57 259 1.0 7.0 0.00 0.00 0.00 87 1029.8
20260506170908 57 248 1.0 3.0 0.00 0.00 0.00 88 1029.4
20260506170408 57 257 1.0 4.0 0.00 0.00 0.00 87 1029.5
20260506165909 57 217 2.0 4.0 0.00 0.00 0.00 87 1029.6
20260506165408 57 264 2.0 4.0 0.00 0.00 0.00 87 1029.8
20260506164910 57 273 1.0 4.0 0.00 0.00 0.00 87 1029.7
20260506164407 57 271 1.0 4.0 0.00 0.00 0.00 88 1029.9
20260506163906 56 207 1.0 3.0 0.00 0.00 0.00 88 1029.7
20260506163409 56 225 1.0 4.0 0.00 0.00 0.00 88 1029.7
20260506162907 56 221 1.0 4.0 0.00 0.00 0.00 88 1029.5
20260506162407 56 225 1.0 4.0 0.00 0.00 0.00 88 1029.6
20260506161908 56 227 1.0 4.0 0.00 0.00 0.00 88 1029.5
20260506161404 56 163 1.0 4.0 0.00 0.00 0.00 88 1029.3
20260506160902 56 233 2.0 5.0 0.00 0.00 0.00 88 1029.3
20260506160403 56 180 1.0 5.0 0.00 0.00 0.00 89 1029.1
20260506155902 55 169 1.0 5.0 0.00 0.00 0.00 89 1029.2
20260506155402 55 121 1.0 5.0 0.00 0.00 0.00 89 1029.2
20260506154904 55 239 1.0 3.0 0.00 0.00 0.00 89 1029.5
20260506154359 55 236 1.0 3.0 0.00 0.00 0.00 89 1029.4
20260506153858 55 224 1.0 3.0 0.00 0.00 0.00 89 1029.5
20260506153400 55 273 1.0 3.0 0.00 0.00 0.00 89 1029.5
20260506152858 54 182 1.0 4.0 0.00 0.00 0.00 89 1029.6
20260506152358 54 244 1.0 4.0 0.00 0.00 0.00 89 1029.7
20260506151859 54 234 1.0 6.0 0.00 0.00 0.00 89 1029.6
20260506151354 54 231 2.0 7.0 0.00 0.00 0.00 89 1029.8
20260506150854 54 209 3.0 7.0 0.00 0.00 0.00 89 1029.7
20260506150354 54 229 3.0 10.0 0.00 0.00 0.00 89 1029.8
20260506145855 54 288 3.0 10.0 0.00 0.00 0.00 88 1029.7
20260506145355 54 246 4.0 9.0 0.00 0.00 0.00 88 1029.7
20260506144854 54 275 3.0 9.0 0.00 0.00 0.00 88 1029.7
20260506144354 54 237 2.0 5.0 0.00 0.00 0.00 89 1029.4
20260506143854 54 232 2.0 5.0 0.00 0.00 0.00 89 1029.2
20260506143355 54 246 2.0 5.0 0.00 0.00 0.00 89 1029.2
20260506142854 54 226 2.0 5.0 0.00 0.00 0.00 89 1029.0
20260506142354 54 252 1.0 4.0 0.00 0.00 0.00 90 1028.9
20260506141855 53 202 1.0 4.0 0.00 0.00 0.00 90 1028.8
20260506141348 53 200 1.0 4.0 0.00 0.00 0.00 90 1028.6
20260506140847 53 175 0.0 1.0 0.00 0.00 0.00 90 1028.7
20260506140345 53 176 0.0 2.0 0.00 0.00 0.00 90 1028.7
20260506135843 53 180 1.0 3.0 0.00 0.00 0.00 90 1028.7
20260506135342 53 147 0.0 3.0 0.00 0.00 0.00 90 1028.8
20260506134839 53 172 0.0 2.0 0.00 0.00 0.00 90 1028.7
20260506134338 53 175 0.0 1.0 0.00 0.00 0.00 90 1028.8
20260506133836 53 181 0.0 3.0 0.00 0.00 0.00 90 1028.8
20260506133337 53 182 1.0 4.0 0.00 0.00 0.00 90 1028.9
20260506132836 53 220 0.0 4.0 0.00 0.00 0.00 90 1028.7
20260506132337 54 222 0.0 2.0 0.00 0.00 0.00 89 1028.6
20260506131830 54 223 0.0 2.0 0.00 0.00 0.00 89 1028.5
20260506131330 54 229 0.0 2.0 0.00 0.00 0.00 89 1028.5
20260506130830 54 229 0.0 2.0 0.00 0.00 0.00 89 1028.4
20260506130330 54 231 0.0 1.0 0.00 0.00 0.00 90 1028.4
20260506125830 54 231 0.0 2.0 0.00 0.00 0.00 90 1028.2
20260506125331 54 230 0.0 2.0 0.00 0.00 0.00 90 1028.1
20260506124825 54 243 0.0 2.0 0.00 0.00 0.00 90 1028.2
20260506124324 54 243 0.0 2.0 0.00 0.00 0.00 90 1028.2
20260506123824 54 244 0.0 1.0 0.00 0.00 0.00 90 1028.2
20260506123326 54 243 0.0 1.0 0.00 0.00 0.00 90 1028.3
20260506122824 54 242 0.0 1.0 0.00 0.00 0.00 90 1028.2
20260506122325 54 243 0.0 1.0 0.00 0.00 0.00 90 1028.2
20260506121820 54 248 0.0 0.0 0.00 0.00 0.00 90 1028.2
20260506121320 54 248 0.0 1.0 0.00 0.00 0.00 90 1028.2
20260506120820 53 248 0.0 1.0 0.00 0.00 0.00 91 1028.1
20260506120321 53 248 0.0 1.0 0.00 0.00 0.00 91 1028.2
20260506115818 53 285 0.0 0.0 0.00 0.00 0.00 90 1028.2
20260506115318 53 284 0.0 0.0 0.00 0.00 0.00 90 1028.1
20260506114816 53 286 0.0 0.0 0.00 0.00 0.00 90 1028.1
20260506114314 53 285 0.0 0.0 0.00 0.00 0.00 90 1027.9
20260506113812 53 284 0.0 0.0 0.00 0.00 0.00 90 1027.9
20260506113312 53 286 0.0 0.0 0.00 0.00 0.00 90 1027.8
20260506112812 53 285 0.0 0.0 0.00 0.00 0.00 90 1027.7
20260506112313 53 284 0.0 0.0 0.00 0.00 0.00 90 1027.6
20260506111808 53 285 0.0 0.0 0.00 0.00 0.00 91 1027.6
20260506111308 53 285 0.0 0.0 0.00 0.00 0.00 90 1027.6
20260506110806 53 284 0.0 1.0 0.00 0.00 0.00 91 1027.6
20260506110306 53 284 0.0 1.0 0.00 0.00 0.00 91 1027.5
20260506105806 53 285 0.0 2.0 0.00 0.00 0.00 91 1027.4
20260506105306 53 284 0.0 2.0 0.00 0.00 0.00 91 1027.3
20260506104805 53 285 0.0 2.0 0.00 0.00 0.00 91 1027.2
20260506104304 53 284 1.0 3.0 0.00 0.00 0.00 91 1027.2
20260506103803 53 284 1.0 3.0 0.00 0.00 0.00 91 1027.1
20260506103302 53 311 0.0 2.0 0.00 0.00 0.00 91 1027.1
20260506102800 53 294 0.0 2.0 0.00 0.00 0.00 91 1027.1
20260506102300 52 298 0.0 2.0 0.00 0.00 0.00 91 1027.1
20260506101759 52 233 0.0 2.0 0.00 0.00 0.00 91 1026.9
20260506101254 52 232 0.0 1.0 0.00 0.00 0.00 90 1026.8
20260506100754 52 232 0.0 1.0 0.00 0.00 0.00 90 1026.9
20260506100254 53 231 0.0 1.0 0.00 0.00 0.00 90 1026.8
20260506095754 52 231 0.0 1.0 0.00 0.00 0.00 90 1026.7
20260506095254 53 230 0.0 0.0 0.00 0.00 0.00 90 1026.7
20260506094751 53 231 0.0 0.0 0.00 0.00 0.00 90 1026.6
20260506094250 53 230 0.0 1.0 0.00 0.00 0.00 90 1026.6
20260506093748 53 231 0.0 1.0 0.00 0.00 0.00 90 1026.6
20260506093248 53 230 0.0 1.0 0.00 0.00 0.00 90 1026.6
20260506092748 53 231 0.0 1.0 0.00 0.00 0.00 89 1026.6
20260506092247 54 230 0.0 1.0 0.00 0.00 0.00 89 1026.6
20260506091742 54 230 0.0 1.0 0.00 0.00 0.00 89 1026.4
20260506091241 54 230 0.0 1.0 0.00 0.00 0.00 89 1026.4
20260506090738 54 265 0.0 1.0 0.00 0.00 0.00 88 1026.4
20260506090235 55 265 0.0 0.0 0.00 0.00 0.00 88 1026.3
20260506085737 55 265 0.0 1.0 0.00 0.00 0.00 88 1026.3
20260506085231 55 265 0.0 1.0 0.00 0.00 0.00 88 1026.3
20260506084730 55 265 0.0 2.0 0.00 0.00 0.00 88 1026.3
20260506084229 56 265 0.0 2.0 0.00 0.00 0.00 87 1026.4
20260506083731 56 273 0.0 2.0 0.00 0.00 0.00 87 1026.3
20260506083230 56 274 0.0 2.0 0.00 0.00 0.00 87 1026.3
20260506082731 57 274 0.0 2.0 0.00 0.00 0.00 87 1026.4
20260506082227 57 274 0.0 2.0 0.00 0.00 0.00 86 1026.3
20260506081726 57 274 0.0 1.0 0.00 0.00 0.00 86 1026.3
20260506081223 58 275 0.0 2.0 0.00 0.00 0.00 86 1026.2
20260506080724 58 275 0.0 2.0 0.00 0.00 0.00 86 1026.2
20260506080223 58 275 0.0 2.0 0.00 0.00 0.00 86 1026.2
20260506073217 58 277 0.0 2.0 0.00 0.00 0.00 85 1026.0
20260506072719 58 279 0.0 2.0 0.00 0.00 0.00 85 1026.1
20260506072216 58 278 1.0 3.0 0.00 0.00 0.00 85 1026.0
20260506071715 59 279 1.0 4.0 0.00 0.00 0.00 85 1026.0
20260506071215 59 276 1.0 4.0 0.00 0.00 0.00 85 1026.0
20260506070717 59 316 1.0 3.0 0.00 0.00 0.00 85 1025.9
20260506070215 59 303 1.0 3.0 0.00 0.00 0.00 85 1026.0
20260506062204 59 296 1.0 2.0 0.00 0.00 0.00 84 1025.7
20260506061703 59 300 1.0 2.0 0.00 0.00 0.00 84 1025.6
20260506061204 59 297 1.0 2.0 0.00 0.00 0.00 84 1025.5
20260506060703 59 323 0.0 3.0 0.00 0.00 0.00 84 1025.6
20260506060203 59 269 1.0 3.0 0.00 0.00 0.00 84 1025.6
20260506051155 60 305 1.0 4.0 0.00 0.00 0.00 82 1025.4
20260506050653 60 317 2.0 5.0 0.00 0.00 0.00 82 1025.4
20260506050152 61 347 2.0 5.0 0.00 0.00 0.00 81 1025.3
20260506044648 62 320 2.0 7.0 0.00 0.00 0.00 80 1025.3
20260506044145 63 277 1.0 7.0 0.00 0.00 0.00 80 1025.1
20260506043645 63 96 0.0 1.0 0.00 0.00 0.00 80 1024.9
20260506043146 63 96 0.0 1.0 0.00 0.00 0.00 80 1024.9
20260506042645 63 97 0.0 0.0 0.00 0.00 0.00 80 1024.8
20260506042145 63 96 0.0 2.0 0.00 0.00 0.00 80 1024.8
20260506041642 63 97 0.0 2.0 0.00 0.00 0.00 80 1024.7
20260506041142 63 97 0.0 1.0 0.00 0.00 0.00 80 1024.7
20260506040641 63 97 0.0 2.0 0.00 0.00 0.00 80 1024.6
20260506040142 63 98 1.0 2.0 0.00 0.00 0.00 79 1024.5
20260506035643 63 97 0.0 2.0 0.00 0.00 0.00 79 1024.4
20260506035137 63 95 0.0 2.0 0.00 0.00 0.00 79 1024.4
20260506034638 63 95 0.0 3.0 0.00 0.00 0.00 79 1024.2
20260506034138 63 95 1.0 3.0 0.00 0.00 0.00 79 1024.2
20260506033638 63 107 1.0 3.0 0.00 0.00 0.00 79 1024.1
20260506033137 64 105 1.0 3.0 0.00 0.00 0.00 79 1024.1
20260506032639 64 90 1.0 3.0 0.00 0.00 0.00 78 1024.1
20260506032133 64 128 1.0 3.0 0.00 0.00 0.00 78 1024.2
20260506031635 64 128 1.0 3.0 0.00 0.00 0.00 77 1024.1
20260506031133 64 128 1.0 4.0 0.00 0.00 0.00 77 1024.0
20260506030634 64 86 1.0 4.0 0.00 0.00 0.00 77 1023.9
20260506030133 64 96 1.0 4.0 0.00 0.00 0.00 77 1023.8
20260506025635 64 108 2.0 4.0 0.00 0.00 0.00 77 1023.8
20260506025130 65 96 2.0 5.0 0.00 0.00 0.00 76 1023.7
20260506024629 65 99 3.0 6.0 0.00 0.00 0.00 76 1023.8
20260506024130 65 93 2.0 6.0 0.00 0.00 0.00 76 1023.6
20260506023630 65 99 2.0 5.0 0.00 0.00 0.00 76 1023.7
20260506023129 65 69 2.0 5.0 0.00 0.00 0.00 76 1023.8
20260506022630 65 92 1.0 4.0 0.00 0.00 0.00 75 1023.7
20260506022125 66 69 1.0 4.0 0.00 0.00 0.00 75 1023.7
20260506021626 66 63 2.0 5.0 0.00 0.00 0.00 75 1023.7
20260506021125 66 57 3.0 6.0 0.00 0.00 0.00 74 1023.8
20260506020626 66 48 2.0 5.0 0.00 0.00 0.00 74 1023.8
20260506020123 67 87 1.0 4.0 0.00 0.00 0.00 73 1023.8
20260506015624 67 92 2.0 7.0 0.00 0.00 0.00 73 1023.8
20260506015125 67 61 2.0 8.0 0.00 0.00 0.00 72 1023.8
20260506014621 68 68 1.0 8.0 0.00 0.00 0.00 72 1023.9
20260506014120 68 77 1.0 4.0 0.00 0.00 0.00 71 1023.8
20260506013620 69 72 2.0 7.0 0.00 0.00 0.00 70 1023.7
20260506013115 69 46 3.0 7.0 0.00 0.00 0.00 69 1023.8
20260506012613 70 78 3.0 7.0 0.00 0.00 0.00 69 1023.8
20260506012113 70 136 2.0 7.0 0.00 0.00 0.00 69 1023.8
20260506011615 70 85 3.0 7.0 0.00 0.00 0.00 70 1023.7
20260506011113 69 70 3.0 8.0 0.00 0.00 0.00 70 1023.7
20260506010613 69 84 3.0 8.0 0.00 0.00 0.00 70 1023.7
20260506010108 70 72 2.0 6.0 0.00 0.00 0.00 68 1023.7
20260506005608 70 76 2.0 5.0 0.00 0.00 0.00 68 1023.7
20260506005107 70 46 2.0 7.0 0.00 0.00 0.00 69 1023.8
20260506004607 70 81 3.0 8.0 0.00 0.00 0.00 69 1023.8
20260506004107 70 82 3.0 8.0 0.00 0.00 0.00 69 1023.8
20260506003607 70 24 2.0 8.0 0.00 0.00 0.00 67 1023.7
20260506003103 70 48 2.0 4.0 0.00 0.00 0.00 68 1023.9
20260506002603 70 23 2.0 6.0 0.00 0.00 0.00 67 1023.7
20260506002102 70 50 2.0 8.0 0.00 0.00 0.00 69 1023.8
20260506001602 70 95 3.0 9.0 0.00 0.00 0.00 70 1023.8
20260506001101 69 49 2.0 9.0 0.00 0.00 0.00 70 1023.8
20260506000600 69 76 2.0 4.0 0.00 0.00 0.00 71 1023.8
20260506000059 68 342 1.0 3.0 0.00 0.00 0.00 70 1023.8
20260505235602 67 84 0.0 4.0 0.00 0.00 0.00 72 1023.9
20260505235058 67 33 1.0 4.0 0.00 0.00 0.00 72 1024.0
20260505234557 67 5 2.0 4.0 0.00 0.00 0.00 71 1024.0
20260505234055 68 22 2.0 6.0 0.00 0.00 0.00 71 1024.0
20260505233556 68 296 2.0 6.0 0.00 0.00 0.00 70 1024.1
20260505233053 68 71 2.0 8.0 0.00 0.00 0.00 72 1024.2
20260505232553 68 65 2.0 8.0 0.00 0.00 0.00 71 1024.1
20260505232054 68 101 2.0 8.0 0.00 0.00 0.00 72 1024.2
20260505231551 68 90 1.0 8.0 0.00 0.00 0.00 71 1024.2